Weather History for Billings, MT

Change the Weather History Date:

Sunday, September 22, 2013

  Actual Average Record
Temperature  
Mean Temperature 64 °F 57 °F  
Max Temperature 71 °F 70 °F 91 °F (1938)
Min Temperature 56 °F 45 °F 25 °F (2000)
Degree Days  
Heating Degree Days 1 8  
Month to date heating degree days 24 111  
Since 1 July heating degree days 24 148  
Cooling Degree Days 0 1  
Month to date cooling degree days 103 46  
Year to date cooling degree days 840 628  
Growing Degree Days 14 (Base 50)    
Moisture  
Dew Point 40 °F    
Average Humidity 46    
Maximum Humidity 62    
Minimum Humidity 29    
Precipitation  
Precipitation T in 0.05 in 0.55 in (2006)
Month to date precipitation 2.99 0.93  
Year to date precipitation 11.17 10.98  
Snow  
Snow 0.00 in 0.00 in 5.00 in (2000)
Month to date snowfall T 0.5  
Since 1 July snowfall T 0.5  
Since 1 September snowfall T 0.5  
Snow Depth 0.00 in    
Sea Level Pressure  
Sea Level Pressure 29.51 in    
Wind  
Wind Speed 9 mph (NNW)    
Max Wind Speed 25 mph    
Max Gust Speed 34 mph    
Visibility 10 miles    
Events      
T = Trace of Precipitation, MM = Missing Value Source: NWS Daily Summary

Daily Weather History Graph

Daily Weather History Graph

Search for Another Location

Airport:

Trip Planner

Search our weather history database for the weather conditions in past years. The results will help you decide how hot, cold, wet, or windy it might be!

Date:

Astronomy

Sep. 22, 2013 Rise Set
Actual Time 7:01 AM MDT 7:11 PM MDT
Civil Twilight 6:31 AM MDT 7:40 PM MDT
Nautical Twilight 5:56 AM MDT 8:15 PM MDT
Astronomical Twilight 5:20 AM MDT 8:51 PM MDT
Moon 8:50 PM MDT (9/22) 10:37 AM MDT (9/22)
Length of Visible Light 13h 09m
Length of Day
12h 09m
Waning Gibbous, 88% of the Moon is Illuminated
Sep 22
Waning Gibbous
Sep 26
Last Quarter
Oct 4
New
Oct 11
First Quarter
Oct 18
Full

Hourly Weather History & Observations

Time (MDT) Temp. Dew Point Humidity Pressure Visibility Wind Dir Wind Speed Gust Speed Precip Events Conditions
12:53 AM 66.0 °F 39.9 °F 38% 29.47 in 10.0 mi SW 6.9 mph - N/A   Clear
1:53 AM 66.0 °F 37.0 °F 34% 29.46 in 10.0 mi SW 6.9 mph - N/A   Clear
2:53 AM 57.9 °F 42.1 °F 56% 29.44 in 10.0 mi NNW 4.6 mph - N/A   Clear
3:53 AM 63.0 °F 39.0 °F 41% 29.47 in 10.0 mi WSW 6.9 mph - N/A   Clear
4:53 AM 60.1 °F 39.0 °F 46% 29.49 in 10.0 mi NW 6.9 mph - N/A   Clear
5:53 AM 61.0 °F 37.9 °F 42% 29.51 in 10.0 mi North 11.5 mph - N/A   Clear
6:53 AM 61.0 °F 36.0 °F 39% 29.50 in 10.0 mi North 17.3 mph - N/A   Mostly Cloudy
7:53 AM 63.0 °F 34.0 °F 34% 29.51 in 10.0 mi NE 12.7 mph - N/A   Partly Cloudy
8:53 AM 60.1 °F 39.9 °F 47% 29.52 in 10.0 mi South 8.1 mph - N/A   Partly Cloudy
9:20 AM 61.0 °F 39.9 °F 46% 29.64 in 10.0 mi WSW 16.1 mph - N/A   Partly Cloudy
9:53 AM 63.0 °F 37.0 °F 38% 29.56 in 10.0 mi WSW 10.4 mph - N/A   Partly Cloudy
10:53 AM 69.1 °F 37.0 °F 31% 29.54 in 10.0 mi North 4.6 mph - N/A   Partly Cloudy
11:53 AM 71.1 °F 37.0 °F 29% 29.53 in 10.0 mi North 4.6 mph - N/A   Partly Cloudy
12:53 PM 68.0 °F 39.0 °F 35% 29.51 in 10.0 mi South 4.6 mph - N/A   Partly Cloudy
1:53 PM 69.1 °F 39.0 °F 33% 29.49 in 10.0 mi Variable 3.5 mph - N/A   Partly Cloudy
2:53 PM 70.0 °F 41.0 °F 35% 29.49 in 10.0 mi Variable 3.5 mph - N/A   Partly Cloudy
3:53 PM 70.0 °F 41.0 °F 35% 29.48 in 10.0 mi East 6.9 mph - N/A   Partly Cloudy
4:53 PM 70.0 °F 41.0 °F 35% 29.48 in 10.0 mi ENE 10.4 mph - N/A   Partly Cloudy
5:53 PM 68.0 °F 43.0 °F 40% 29.49 in 10.0 mi NNE 6.9 mph - N/A   Partly Cloudy
6:53 PM 66.0 °F 44.1 °F 45% 29.49 in 10.0 mi NE 10.4 mph - N/A   Scattered Clouds
7:53 PM 64.9 °F 42.1 °F 43% 29.50 in 10.0 mi East 13.8 mph 21.9 mph N/A   Mostly Cloudy
8:53 PM 63.0 °F 42.1 °F 46% 29.54 in 10.0 mi Calm Calm - N/A   Mostly Cloudy
9:53 PM 61.0 °F 43.0 °F 52% 29.53 in 10.0 mi North 9.2 mph - N/A   Mostly Cloudy
10:53 PM 61.0 °F 42.1 °F 50% 29.57 in 10.0 mi NNW 21.9 mph 27.6 mph 0.00 in   Overcast
11:53 PM 57.0 °F 44.1 °F 62% 29.58 in 10.0 mi NNW 20.7 mph - N/A   Scattered Clouds